This demonstration page uses our WeatherBlox Daily Observations layout. Learn more.

Hourly Observations for March 9, 2020

Temp ( °F °C ) Dew Point ( °F °C ) Humidity (%) Winds ( mph kmh ) Pressure ( in mb ) Visibility ( mi km ) Precip ( " mm )
12:15 am 00:15 Clear 46 8 25 -4 43 43 SSW 7 11 30.42 1030 10 16.0934 0 0
12:35 am 00:35 Clear 43 6 27 -3 53 53 SSW 7 11 30.42 1030 10 16.0934 0 0
12:55 am 00:55 Clear 43 6 27 -3 53 53 SW 3 6 30.42 1030 10 16.0934 0 0
1:15 am 01:15 Clear 43 6 28 -2 57 57 SW 5 7 30.42 1030 10 16.0934 0 0
1:35 am 01:35 Clear 37 3 30 -1 75 75 SW 6 9 30.43 1030 10 16.0934 0 0
1:55 am 01:55 Clear 41 5 28 -2 61 61 SSW 6 9 30.42 1030 10 16.0934 0 0
2:15 am 02:15 Clear 41 5 27 -3 57 57 SSW 3 6 30.42 1030 10 16.0934 0 0
2:35 am 02:35 Clear 41 5 28 -2 61 61 Calm 30.43 1031 10 16.0934 0 0
2:55 am 02:55 Clear 43 6 27 -3 53 53 Calm 30.43 1031 10 16.0934 0 0
3:15 am 03:15 Clear 43 6 27 -3 53 53 Calm 30.42 1030 10 16.0934 0 0
3:35 am 03:35 Clear 43 6 27 -3 53 53 Calm 30.41 1030 10 16.0934 0 0
3:55 am 03:55 Clear 43 6 27 -3 53 53 Calm 30.41 1030 10 16.0934 0 0
4:15 am 04:15 Clear 39 4 28 -2 65 65 Calm 30.42 1030 10 16.0934 0 0
4:35 am 04:35 Clear 37 3 28 -2 70 70 SSW 3 6 30.42 1030 10 16.0934 0 0
4:55 am 04:55 Clear 36 2 28 -2 75 75 Calm 30.42 1030 10 16.0934 0 0
5:15 am 05:15 Clear 36 2 28 -2 75 75 SW 3 6 30.43 1030 10 16.0934 0 0
5:35 am 05:35 Clear 36 2 28 -2 75 75 SW 3 6 30.43 1030 10 16.0934 0 0
5:55 am 05:55 Clear 36 2 28 -2 75 75 SSW 3 6 30.44 1031 10 16.0934 0 0
6:15 am 06:15 Clear 36 2 28 -2 75 75 Calm 30.44 1031 10 16.0934 0 0
6:35 am 06:35 Clear 36 2 28 -2 75 75 SSW 3 6 30.44 1031 10 16.0934 0 0
6:55 am 06:55 Clear 37 3 27 -3 65 65 SSW 5 7 30.44 1031 10 16.0934 0 0
7:15 am 07:15 Clear 34 1 28 -2 81 81 WSW 3 6 30.44 1031 10 16.0934 0 0
7:35 am 07:35 Sunny 32 0 28 -2 87 87 W 5 7 30.45 1031 10 16.0934 0 0
7:55 am 07:55 Sunny 36 2 28 -2 75 75 SW 3 6 30.45 1031 10 16.0934 0 0
8:15 am 08:15 Sunny 36 2 28 -2 75 75 SSW 6 9 30.45 1031 10 16.0934 0 0
8:35 am 08:35 Sunny 37 3 28 -2 70 70 SW 3 6 30.46 1031 10 16.0934 0 0
8:55 am 08:55 Sunny 41 5 28 -2 61 61 SSW 3 6 30.45 1031 10 16.0934 0 0
9:15 am 09:15 Sunny 45 7 30 -1 57 57 Calm 30.45 1031 10 16.0934 0 0
9:35 am 09:35 Sunny 46 8 30 -1 53 53 Calm 30.45 1031 10 16.0934 0 0
9:55 am 09:55 Sunny 50 10 30 -1 47 47 SSW 3 6 30.45 1031 10 16.0934 0 0
10:15 am 10:15 Sunny 52 11 32 0 47 47 Calm 30.44 1031 10 16.0934 0 0
10:35 am 10:35 Sunny 54 12 32 0 44 44 Calm 30.44 1031 10 16.0934 0 0
10:55 am 10:55 Sunny 55 13 32 0 41 41 SSE 3 6 30.44 1031 10 16.0934 0 0
11:15 am 11:15 Sunny 59 15 32 0 36 36 Calm 30.44 1031 10 16.0934 0 0
11:35 am 11:35 Sunny 61 16 32 0 34 34 Calm 30.44 1031 10 16.0934 0 0
11:55 am 11:55 Sunny 63 17 32 0 32 32 Calm 30.43 1030 10 16.0934 0 0
12:15 pm 12:15 Sunny 66 19 32 0 28 28 SSW 6 9 30.41 1030 10 16.0934 0 0
12:35 pm 12:35 Sunny 68 20 28 -2 23 23 NW 8 13 30.41 1030 10 16.0934 0 0
12:55 pm 12:55 Sunny 68 20 28 -2 23 23 W 6 9 30.39 1029 10 16.0934 0 0
1:15 pm 13:15 Sunny 70 21 28 -2 21 21 W 8 13 30.38 1029 10 16.0934 0 0
1:35 pm 13:35 Sunny 72 22 28 -2 20 20 WSW 6 9 30.37 1028 10 16.0934 0 0
1:55 pm 13:55 Sunny 72 22 28 -2 20 20 SW 7 11 30.36 1028 10 16.0934 0 0
2:15 pm 14:15 Sunny 72 22 28 -2 20 20 WSW 9 15 30.34 1027 10 16.0934 0 0
2:35 pm 14:35 Sunny 73 23 28 -2 19 19 SSW 7 11 30.33 1027 10 16.0934 0 0
2:55 pm 14:55 Sunny 73 23 28 -2 19 19 WSW 7 11 30.32 1027 10 16.0934 0 0
3:15 pm 15:15 Sunny 73 23 28 -2 19 19 WSW 3 6 30.31 1026 10 16.0934 0 0
3:35 pm 15:35 Sunny 73 23 28 -2 19 19 WSW 9 15 30.3 1026 10 16.0934 0 0
3:55 pm 15:55 Sunny 73 23 30 -1 20 20 S 13 20 30.3 1026 10 16.0934 0 0
4:15 pm 16:15 Sunny 73 23 30 -1 20 20 SSW 12 19 30.29 1026 10 16.0934 0 0
4:35 pm 16:35 Sunny 73 23 30 -1 20 20 S 16 26 30.29 1026 10 16.0934 0 0
4:55 pm 16:55 Sunny 73 23 30 -1 20 20 S 12 19 30.28 1025 10 16.0934 0 0
5:15 pm 17:15 Sunny 73 23 30 -1 20 20 S 12 19 30.28 1025 10 16.0934 0 0
5:35 pm 17:35 Sunny 72 22 28 -2 20 20 S 10 17 30.28 1025 10 16.0934 0 0
5:55 pm 17:55 Sunny 72 22 28 -2 20 20 S 10 17 30.27 1025 10 16.0934 0 0
6:15 pm 18:15 Sunny 72 22 30 -1 22 22 S 10 17 30.27 1025 10 16.0934 0 0
6:35 pm 18:35 Sunny 70 21 30 -1 23 23 S 7 11 30.27 1025 10 16.0934 0 0
6:55 pm 18:55 Sunny 68 20 28 -2 23 23 S 7 11 30.27 1025 10 16.0934 0 0
7:15 pm 19:15 Clear 68 20 28 -2 23 23 S 8 13 30.27 1025 10 16.0934 0 0
7:35 pm 19:35 Clear 64 18 28 -2 26 26 S 7 11 30.27 1025 10 16.0934 0 0
7:55 pm 19:55 Clear 64 18 28 -2 26 26 S 7 11 30.27 1025 10 16.0934 0 0
8:15 pm 20:15 Clear 63 17 28 -2 27 27 S 9 15 30.28 1025 10 16.0934 0 0
8:35 pm 20:35 Clear 63 17 28 -2 27 27 SSW 9 15 30.29 1026 10 16.0934 0 0
8:55 pm 20:55 Clear 63 17 28 -2 27 27 SSW 9 15 30.3 1026 10 16.0934 0 0
9:15 pm 21:15 Clear 63 17 30 -1 30 30 SSW 8 13 30.3 1026 10 16.0934 0 0
9:35 pm 21:35 Clear 63 17 30 -1 30 30 SSW 8 13 30.31 1026 10 16.0934 0 0
9:55 pm 21:55 Clear 63 17 30 -1 30 30 SSW 8 13 30.31 1026 10 16.0934 0 0
10:15 pm 22:15 Clear 61 16 30 -1 31 31 SSW 7 11 30.31 1026 10 16.0934 0 0
10:35 pm 22:35 Clear 61 16 32 0 34 34 SSW 8 13 30.31 1026 10 16.0934 0 0
10:55 pm 22:55 Clear 61 16 32 0 34 34 SW 8 13 30.3 1026 10 16.0934 0 0
11:15 pm 23:15 Clear 61 16 32 0 34 34 SSW 7 11 30.3 1026 10 16.0934 0 0
11:35 pm 23:35 Clear 61 16 32 0 34 34 SW 9 15 30.3 1026 10 16.0934 0 0
11:55 pm 23:55 Clear 59 15 34 1 39 39 S 7 11 30.3 1026 10 16.0934 0 0

Powered by AerisWeather